CW5897 Weather Reports


time (UTC)temp
C
wind
direction
speed
KPH
gust
KPH
rain 1hr
cm
rain 24hr
cm
rain mn
cm
humidity
%
barometer
mb
20260502191704 10 280 3.2 4.8 0.00 0.15 0.15 84 1008.3
20260502191203 11 280 4.8 9.7 0.00 0.15 0.15 84 1008.4
20260502190703 11 280 3.2 8.0 0.00 0.15 0.15 83 1008.4
20260502190204 11 280 3.2 8.0 0.00 0.15 0.15 81 1008.5
20260502185704 11 170 1.6 16.1 0.00 0.15 0.15 78 1008.4
20260502184203 12 170 8.0 14.5 0.00 0.15 0.15 74 1008.4
20260502183703 12 170 4.8 12.9 0.00 0.15 0.15 74 1008.4
20260502183204 12 170 4.8 14.5 0.00 0.15 0.15 75 1008.3
20260502182203 12 170 8.0 14.5 0.00 0.15 0.15 73 1008.4
20260502181704 12 170 8.0 19.3 0.00 0.15 0.15 75 1008.4
20260502181203 12 220 3.2 12.9 0.00 0.15 0.15 74 1008.4
20260502180704 12 220 4.8 14.5 0.00 0.15 0.15 73 1008.4
20260502180204 12 220 4.8 16.1 0.00 0.15 0.15 72 1008.4
20260502170203 11 170 3.2 8.0 0.00 0.15 0.15 81 1008.7
20260502164204 11 150 1.6 9.7 0.00 0.15 0.15 82 1009.1
20260502163204 10 150 3.2 16.1 0.00 0.15 0.15 83 1009.2
20260502162704 10 150 3.2 9.7 0.00 0.15 0.15 85 1009.3
20260502162204 10 150 3.2 4.8 0.00 0.15 0.15 86 1009.3
20260502161703 10 150 4.8 8.0 0.00 0.15 0.15 89 1009.3
20260502161203 10 150 1.6 4.8 0.00 0.15 0.15 87 1009.4
20260502160703 10 150 1.6 4.8 0.00 0.15 0.15 90 1009.4
20260502152204 9 140 3.2 4.8 0.03 0.15 0.15 91 1009.9
20260502151704 9 140 1.6 4.8 0.03 0.15 0.15 91 1010.0
20260502151203 9 140 1.6 4.8 0.03 0.15 0.15 91 1010.0
20260502150204 9 140 3.2 4.8 0.03 0.15 0.15 90 1009.8
20260502130703 7 150 3.2 4.8 0.05 0.13 0.13 96 1010.6
20260502130204 7 150 3.2 4.8 0.05 0.13 0.13 96 1010.5
20260502123203 6 300 1.6 3.2 0.08 0.13 0.13 95 1010.8
20260502122704 6 300 0.0 3.2 0.05 0.10 0.10 95 1010.8
20260502122204 6 300 0.0 0.0 0.05 0.10 0.10 95 1010.7
20260502121704 6 300 0.0 1.6 0.05 0.10 0.10 95 1010.8
20260502120703 6 300 1.6 4.8 0.03 0.08 0.08 95 1010.6
20260502120204 6 300 1.6 4.8 0.03 0.08 0.08 95 1010.6
20260502115703 6 250 3.2 4.8 0.05 0.08 0.08 96 1010.3
20260502114703 6 250 0.0 4.8 0.03 0.05 0.05 95 1010.3
20260502114204 6 250 1.6 3.2 0.03 0.05 0.05 95 1010.2
20260502113704 6 250 1.6 4.8 0.03 0.05 0.05 95 1010.0
20260502113204 6 250 1.6 3.2 0.03 0.05 0.05 96 1009.9
20260502112704 6 250 0.0 1.6 0.05 0.05 0.05 95 1009.9
20260502110703 6 250 1.6 4.8 0.05 0.05 0.05 94 1010.1
20260502110203 6 250 3.2 4.8 0.05 0.05 0.05 94 1010.2
20260502104704 7 280 1.6 4.8 0.03 0.03 0.03 94 1009.8
20260502103703 7 280 1.6 8.0 0.03 0.03 0.03 93 1009.6
20260502103204 7 280 3.2 4.8 0.03 0.03 0.03 93 1009.6
20260502102704 7 280 1.6 3.2 0.00 0.00 0.00 93 1009.5
20260502100704 7 280 1.6 3.2 0.00 0.00 0.00 93 1009.5
20260502100203 7 280 1.6 1.6 0.00 0.00 0.00 92 1009.5
20260502091203 7 270 3.2 8.0 0.00 0.00 0.00 92 1009.6
20260502090704 7 270 3.2 4.8 0.00 0.00 0.00 91 1009.4
20260502090204 7 270 3.2 4.8 0.00 0.00 0.00 90 1009.2
20260502071204 7 230 1.6 3.2 0.00 0.00 0.00 80 1009.3
20260502070703 7 230 0.0 1.6 0.00 0.00 0.00 79 1009.2
20260502070204 8 230 3.2 4.8 0.00 0.00 0.00 79 1009.5
20260502065704 8 240 3.2 4.8 0.00 0.00 0.00 69 1009.7
20260502065204 8 240 3.2 9.7 0.00 0.00 0.00 79 1009.6
20260502064704 8 240 4.8 9.7 0.00 0.00 0.00 78 1009.6
20260502064204 8 240 4.8 12.9 0.00 0.00 0.00 78 1009.6
20260502063203 8 240 0.0 4.8 0.00 0.00 0.00 76 1009.4
20260502062703 8 240 3.2 4.8 0.00 0.00 0.00 75 1009.4
20260502062204 8 240 0.0 4.8 0.00 0.00 0.00 75 1009.5
20260502061704 8 240 3.2 8.0 0.00 0.00 0.00 74 1009.8
20260502061203 8 240 3.2 12.9 0.00 0.00 0.00 73 1009.9
20260502060703 8 240 3.2 4.8 0.00 0.00 0.00 73 1009.9
20260502060204 8 240 4.8 8.0 0.00 0.00 0.00 73 1009.8
20260502055204 8 240 3.2 9.7 0.00 0.00 0.00 73 1009.7
20260502054204 8 240 1.6 4.8 0.00 0.00 0.00 72 1009.8
20260502053704 8 240 3.2 4.8 0.00 0.00 0.00 72 1009.7
20260502053203 8 240 1.6 4.8 0.00 0.00 0.00 71 1009.7
20260502052704 8 240 3.2 4.8 0.00 0.00 0.00 71 1009.7
20260502052203 8 240 0.0 1.6 0.00 0.00 0.00 69 1009.6
20260502051704 8 240 3.2 4.8 0.00 0.00 0.00 70 1009.7
20260502045704 9 240 1.6 4.8 0.00 0.00 0.00 68 1009.7
20260502045203 9 240 0.0 1.6 0.00 0.00 0.00 68 1009.7
20260502044704 9 240 1.6 4.8 0.00 0.00 0.00 68 1009.8
20260502044204 9 240 0.0 3.2 0.00 0.00 0.00 67 1009.7
20260502043704 9 240 1.6 4.8 0.00 0.00 0.00 66 1009.8
20260502043203 9 240 1.6 3.2 0.00 0.00 0.00 66 1009.7
20260502042704 9 240 0.0 1.6 0.00 0.00 0.00 65 1009.7
20260502042204 9 240 1.6 3.2 0.00 0.00 0.00 51 1009.8
20260502041704 9 240 1.6 3.2 0.00 0.00 0.00 64 1009.8
20260502041204 9 240 0.0 3.2 0.00 0.00 0.00 64 1009.7
20260502040204 10 240 1.6 3.2 0.00 0.00 0.00 63 1010.0
20260502035703 10 220 1.6 3.2 0.00 0.00 0.00 62 1010.0
20260502035203 10 220 1.6 4.8 0.00 0.00 0.00 63 1010.0
20260502034704 10 220 1.6 3.2 0.00 0.00 0.00 62 1009.9
20260502034203 10 220 3.2 4.8 0.00 0.00 0.00 62 1009.9
20260502033204 10 220 1.6 4.8 0.00 0.00 0.00 63 1010.0
20260502032204 9 220 3.2 8.0 0.00 0.00 0.00 62 1010.1
20260502031204 9 220 1.6 4.8 0.00 0.00 0.00 62 1010.0
20260502030704 9 220 1.6 3.2 0.00 0.00 0.00 62 1010.0
20260502030204 10 221 3.2 4.8 0.00 0.00 0.00 62 1010.0
20260502025704 10 310 0.0 1.6 0.00 0.00 0.00 60 1010.0
20260502024703 10 310 3.2 8.0 0.00 0.00 0.00 59 1009.9
20260502023704 10 310 4.8 12.9 0.00 0.00 0.00 59 1009.9
20260502023204 10 310 4.8 12.9 0.00 0.00 0.00 59 1009.8
20260502022703 10 310 1.6 4.8 0.00 0.00 0.00 59 1009.8
20260502022203 10 310 0.0 0.0 0.00 0.00 0.00 57 1009.7
20260502021703 10 310 0.0 0.0 0.00 0.00 0.00 54 1009.6
20260502021203 10 310 0.0 1.6 0.00 0.00 0.00 46 1009.7
20260502020703 10 310 0.0 1.6 0.00 0.00 0.00 54 1009.6
20260502020204 10 310 1.6 4.8 0.00 0.00 0.00 53 1009.7
20260502015704 9 310 1.6 3.2 0.00 0.00 0.00 53 1009.7
20260502014704 9 310 0.0 0.0 0.00 0.00 0.00 55 1009.6
20260502014204 9 310 0.0 0.0 0.00 0.00 0.00 52 1009.5
20260502013703 9 310 0.0 0.0 0.00 0.00 0.00 52 1009.5
20260502013204 10 310 0.0 0.0 0.00 0.00 0.00 52 1009.5
20260502012703 10 310 0.0 0.0 0.00 0.00 0.00 51 1009.5
20260502012204 10 310 0.0 0.0 0.00 0.00 0.00 50 1009.4
20260502011703 10 310 0.0 0.0 0.00 0.00 0.00 50 1009.5
20260502011204 10 310 0.0 0.0 0.00 0.00 0.00 50 1009.4
20260502010704 10 310 0.0 0.0 0.00 0.00 0.00 50 1009.4
20260502010204 10 309 0.0 0.0 0.00 0.00 0.00 49 1009.3
20260502005703 11 260 0.0 0.0 0.00 0.00 0.00 49 1009.2
20260502005203 11 260 0.0 0.0 0.00 0.00 0.00 48 1009.2
20260502004704 11 260 0.0 0.0 0.00 0.00 0.00 47 1009.2
20260502003704 12 260 0.0 0.0 0.00 0.00 0.00 47 1009.1
20260502003203 12 260 0.0 0.0 0.00 0.00 0.00 45 1009.1
20260502002204 12 260 1.6 3.2 0.00 0.00 0.00 44 1008.9
20260502001703 12 260 1.6 3.2 0.00 0.00 0.00 43 1008.8
20260502001204 12 260 1.6 4.8 0.00 0.00 0.00 42 1008.7
20260502000704 12 260 3.2 3.2 0.00 0.00 0.00 42 1008.6
20260502000204 13 260 3.2 8.0 0.00 0.00 0.00 40 1008.6
20260501235703 13 270 1.6 4.8 0.00 0.00 0.00 32 1008.5
20260501234704 13 270 1.6 4.8 0.00 0.00 0.00 39 1008.3
20260501234203 13 270 3.2 12.9 0.00 0.00 0.00 38 1008.2
20260501233703 13 270 3.2 4.8 0.00 0.00 0.00 38 1008.2
20260501233203 14 270 3.2 8.0 0.00 0.00 0.00 38 1008.1
20260501232704 14 270 4.8 14.5 0.00 0.00 0.00 37 1008.1
20260501232203 14 270 8.0 14.5 0.00 0.00 0.00 36 1007.8
20260501231204 14 270 4.8 14.5 0.00 0.00 0.00 36 1007.8
20260501230703 14 270 3.2 8.0 0.00 0.00 0.00 37 1007.7
20260501230204 15 270 3.2 8.0 0.00 0.00 0.00 38 1007.6
20260501225704 15 250 3.2 12.9 0.00 0.00 0.00 37 1007.7
20260501225204 15 250 9.7 19.3 0.00 0.00 0.00 36 1007.6
20260501224703 15 250 8.0 16.1 0.00 0.00 0.00 37 1007.5
20260501224204 15 250 4.8 12.9 0.00 0.00 0.00 36 1007.5
20260501222204 15 250 6.4 16.1 0.00 0.00 0.00 37 1007.6
20260501221204 15 250 4.8 9.7 0.00 0.00 0.00 37 1007.6
20260501220703 15 250 3.2 8.0 0.00 0.00 0.00 36 1007.5
20260501215703 15 270 6.4 12.9 0.00 0.00 0.00 37 1007.4
20260501215204 15 270 4.8 12.9 0.00 0.00 0.00 37 1007.4
20260501214704 15 270 6.4 12.9 0.00 0.00 0.00 37 1007.4
20260501214204 15 270 4.8 20.9 0.00 0.00 0.00 38 1007.4
20260501213704 15 270 9.7 20.9 0.00 0.00 0.00 36 1007.3
20260501213203 15 270 4.8 16.1 0.00 0.00 0.00 36 1007.3
20260501212704 15 270 3.2 16.1 0.00 0.00 0.00 37 1007.2
20260501211704 15 270 9.7 19.3 0.00 0.00 0.00 38 1007.2
20260501211203 15 270 8.0 19.3 0.00 0.00 0.00 37 1007.3
20260501210703 15 270 1.6 11.3 0.00 0.00 0.00 39 1007.3
20260501210203 15 270 8.0 19.3 0.00 0.00 0.00 37 1007.2
20260501205704 15 280 4.8 16.1 0.00 0.00 0.00 39 1007.3
20260501205204 15 280 6.4 19.3 0.00 0.00 0.00 39 1007.2
20260501204703 15 280 4.8 8.0 0.00 0.00 0.00 39 1007.2
20260501204204 15 280 4.8 12.9 0.00 0.00 0.00 37 1007.2
20260501203703 15 280 9.7 22.5 0.00 0.00 0.00 37 1007.2
20260501203204 15 280 9.7 19.3 0.00 0.00 0.00 37 1007.1
20260501202704 15 280 8.0 19.3 0.00 0.00 0.00 37 1007.0
20260501202203 15 280 9.7 19.3 0.00 0.00 0.00 39 1007.0
20260501201703 15 280 6.4 12.9 0.00 0.00 0.00 40 1006.9
20260501200703 15 280 4.8 19.3 0.00 0.00 0.00 38 1007.0
20260501200204 15 280 9.7 16.1 0.00 0.00 0.00 38 1006.9
20260501195703 15 270 11.3 20.9 0.00 0.00 0.00 37 1007.0
20260501195204 15 270 9.7 19.3 0.00 0.00 0.00 37 1007.0
20260501194704 15 270 8.0 14.5 0.00 0.00 0.00 38 1006.9
20260501194204 15 270 11.3 22.5 0.00 0.00 0.00 37 1007.2
20260501193704 15 270 9.7 19.3 0.00 0.00 0.00 37 1007.1
20260501192704 15 270 8.0 20.9 0.00 0.00 0.00 36 1007.2
20260501192203 15 270 6.4 27.4 0.00 0.00 0.00 38 1007.2